星链-4432 (STARLINK-4432 )

导读

STARLINK-4432是美国太空探索技术公司(SpaceX)星链(Starlink)项目中的卫星,于2022年8月12日发射升空,属于星链星座组网卫星,该卫星属于低轨通信卫星,用于提供全球范围的宽带互联网服务,依托星链星座规模部署,可覆盖偏远区域,满足各类场景网络接入需求。

Basic Information
目录编号:
53487
目录名称:
STARLINK-4432
国际标识:
2022-099Y
轨道中心:
EARTH
卫星名称:
星链-4432
卫星全名:
星链-4432 (STARLINK-4432 )
卫星状态:
在轨 (已飞行1484 天)
发射日期:
2022-08-12 UTC
国别 :
美国 (US)
星等 :
--
Orbit Information
数据来源 国际轨道数据
星历时间: 2026-09-02T15:12:54+0800
1天前
查看轨道信息
半长轴: 6843.715km
偏心率: 0.0001387
轨道倾角: 97.285°
近地点辐角 92.447°
升交点赤经 3.266°
平近点角 267.694°
近地点: 464.628km
远地点: 466.528km
周期: 93.907分钟
每日圈数: 15.334333
Detailed Information
固有亮度:
5
最大亮度:
2.5
卫星平台:
Starlink v1.5
覆盖范围:
全球
运营商:
太空探索技术公司
运营商所在国:
美国
制造商(研发单位):
太空探索技术公司
制造商所在国:
美国
使用方式:
暂无
Satellite Introduction
星链(Starlink)计划是由太空探索技术公司(SpaceX)提出的一个巨型低轨卫星互联网星座项目,计划在2019年至2024年间在太空搭建由约1.2万颗卫星组成的“星链”网络,其中1584颗将部署在地球上空550千米处的近地轨道,并从2020年开始工作。该卫星仍在工作。
2D Orbit Map
3D Orbit Map
Orbit Altitude Analysis Chart
Orbit Inclination Analysis Chart
Orbit Comprehensive Analysis Chart
View Comprehensive Chart
Conjunction Data List
Event ID Objects TCA Miss Dist (km) Collision Risk Probability Collision Risk Index (CRI) Action
CDM_260905-113505-348706-764821
2026-09-05T
11:35:33+0000
0.303 km
远距离
4.287902E-4 高风险 0.88
CDM_260905-064905-348706-519221
2026-09-05T
06:49:08+0000
0.735 km
远距离
6.602341E-5 中风险 0.71
CDM_260905-042805-348706-519221
2026-09-05T
04:28:11+0000
1.142 km
极远距离
1.517631E-5 中风险 0.59
CDM_260905-130905-348706-764821
2026-09-05T
13:09:31+0000
1.523 km
极远距离
5.002105E-6 低风险 0.49
CDM_260904-135202-510405-348723
2026-09-04T
13:52:37+0000
1.833 km
极远距离
3.684582E-6 低风险 0.46
CDM_260905-100105-348706-764821
2026-09-05T
10:01:35+0000
1.808 km
极远距离
2.983575E-6 低风险 0.44
CDM_260905-043305-348705-850221
OBJECT A (58502)
2026-09-05T
04:33:11+0000
2.189 km
极远距离
1.973184E-6 低风险 0.41
CDM_260904-121405-348706-635822
2026-09-04T
12:14:02+0000
2.447 km
极远距离
1.675567E-6 低风险 0.39
CDM_260903-223304-840105-348721
2026-09-03T
22:33:34+0000
2.781 km
极远距离
1.435687E-6 低风险 0.38
CDM_260903-144605-189605-348724
2026-09-03T
14:46:15+0000
2.589 km
极远距离
1.433326E-6 低风险 0.38